Sauk Centre, MN

4:49 AM CDT on June 28, 2017 (GMT -0500)
Sauk Centre

Weather History for KD39 - August, 2014

Change the Weather History Date:

Thursday, August 21, 2014

  Actual Average (KGHW) Record (KGHW)
Temperature  
Mean Temperature 69 °F -  
Max Temperature 73 °F 78 °F 92 °F (1972)
Min Temperature 65 °F 57 °F 39 °F (2004)
Cooling Degree Days 4    
Growing Degree Days 19 (Base 50)    
Moisture  
Dew Point 67 °F    
Average Humidity 92    
Maximum Humidity 98    
Minimum Humidity 85    
Precipitation  
Precipitation 0.97 in - - ()
Sea Level Pressure  
Sea Level Pressure 29.81 in    
Wind  
Wind Speed 8 mph (East)    
Max Wind Speed 14 mph    
Max Gust Speed 20 mph    
Visibility 9 miles    
Events Rain , Thunderstorm    
Averages and records for this station are not official NWS values.
T = Trace of Precipitation, MM = Missing Value Source: NWS Daily Summary

Daily Weather History Graph

Daily Weather History Graph

Search for Another Location

Airport or City:

Trip Planner

Search our weather history database for the weather conditions in past years. The results will help you decide how hot, cold, wet, or windy it might be!

Date:

Astronomy

Aug. 21, 2014 Rise Set
Actual Time 6:27 AM CDT 8:17 PM CDT
Civil Twilight 5:55 AM CDT 8:49 PM CDT
Nautical Twilight 5:16 AM CDT 9:27 PM CDT
Astronomical Twilight 4:34 AM CDT 10:10 PM CDT
Moon 2:53 AM CDT (8/21) 5:51 PM CDT (8/21)
Length of Visible Light 14h 53m
Length of Day
13h 50m
Waning Crescent, 13% of the Moon is Illuminated
Aug 21
Waning Crescent
Aug 25
New
Sep 2
First Quarter
Sep 8
Full
Sep 15
Last Quarter

Hourly Weather History & Observations

Time (CDT) Temp. Dew Point Humidity Pressure Visibility Wind Dir Wind Speed Gust Speed Precip Events Conditions
12:12 AM 68.4 °F 64.6 °F 88% 29.84 in 10.0 mi East 10.4 mph - N/A   Scattered Clouds
12:32 AM 68.0 °F 64.4 °F 88% 29.83 in 10.0 mi East 9.2 mph - N/A Thunderstorm Scattered Clouds
12:52 AM 68.4 °F 64.6 °F 88% 29.82 in 10.0 mi East 8.1 mph - N/A   Mostly Cloudy
1:12 AM 68.0 °F 64.6 °F 89% 29.82 in 10.0 mi East 8.1 mph - N/A   Scattered Clouds
1:32 AM 68.2 °F 64.6 °F 88% 29.79 in 10.0 mi East 10.4 mph 16.1 mph N/A   Mostly Cloudy
1:52 AM 68.7 °F 64.8 °F 87% 29.80 in 10.0 mi East 9.2 mph - N/A Thunderstorm Overcast
2:12 AM 68.2 °F 65.1 °F 90% 29.78 in 10.0 mi ESE 12.7 mph 17.3 mph 0.01 in Rain Rain
2:32 AM 67.6 °F 65.3 °F 92% 29.78 in 10.0 mi East 10.4 mph 16.1 mph 0.03 in Rain Light Rain
2:52 AM 67.3 °F 65.5 °F 94% 29.77 in 7.0 mi East 10.4 mph 17.3 mph 0.05 in Rain , Thunderstorm Light Thunderstorms and Rain
3:13 AM 67.1 °F 65.5 °F 95% 29.77 in 10.0 mi East 10.4 mph - 0.02 in Rain , Thunderstorm Thunderstorms and Rain
3:32 AM 66.6 °F 65.5 °F 96% 29.77 in 5.0 mi East 13.8 mph - 0.12 in Rain , Thunderstorm Thunderstorms and Rain
3:52 AM 66.4 °F 65.5 °F 97% 29.82 in 2.0 mi East 9.2 mph - 0.37 in Rain , Thunderstorm Heavy Thunderstorms and Rain
4:12 AM 66.7 °F 65.8 °F 97% 29.82 in 4.0 mi East 9.2 mph - 0.07 in Rain , Thunderstorm Thunderstorms and Rain
4:32 AM 66.6 °F 65.7 °F 97% 29.81 in 4.0 mi East 10.4 mph - 0.21 in Rain , Thunderstorm Heavy Thunderstorms and Rain
4:52 AM 66.4 °F 65.3 °F 96% 29.79 in 7.0 mi East 10.4 mph - 0.30 in Rain Light Rain
5:12 AM 66.4 °F 65.5 °F 97% 29.84 in 7.0 mi South 9.2 mph - 0.04 in Rain Heavy Rain
5:32 AM 66.4 °F 65.7 °F 98% 29.80 in 4.0 mi ESE 13.8 mph - 0.20 in Rain Rain
5:52 AM 66.7 °F 66.2 °F 98% 29.81 in 7.0 mi NNE 5.8 mph - 0.25 in Rain Rain
6:12 AM 66.2 °F 64.6 °F 94% 29.79 in 10.0 mi ENE 8.1 mph - N/A   Scattered Clouds
6:32 AM 66.2 °F 64.4 °F 94% 29.80 in 10.0 mi East 9.2 mph - N/A   Clear
6:53 AM 66.4 °F 63.9 °F 92% 29.79 in 10.0 mi East 12.7 mph - N/A   Clear
7:12 AM 65.8 °F 64.2 °F 94% 29.77 in 10.0 mi ESE 12.7 mph 18.4 mph N/A   Clear
7:33 AM 66.0 °F 64.4 °F 94% 29.76 in 10.0 mi East 10.4 mph - N/A   Clear
7:52 AM 66.4 °F 64.6 °F 94% 29.77 in 10.0 mi East 11.5 mph - N/A   Clear
8:12 AM 67.1 °F 64.6 °F 92% 29.77 in 10.0 mi ESE 12.7 mph 19.6 mph N/A   Scattered Clouds
8:33 AM 68.0 °F 64.9 °F 90% 29.77 in 10.0 mi ESE 11.5 mph - N/A   Clear
8:52 AM 69.3 °F 65.5 °F 88% 29.78 in 10.0 mi East 9.2 mph - N/A   Scattered Clouds
9:12 AM 69.4 °F 65.7 °F 88% 29.78 in 10.0 mi ESE 5.8 mph - N/A   Mostly Cloudy
9:33 AM 70.7 °F 66.9 °F 88% 29.77 in 10.0 mi ESE 9.2 mph - N/A   Overcast
9:52 AM 72.3 °F 68.0 °F 86% 29.77 in 10.0 mi SE 8.1 mph - N/A   Overcast
10:12 AM 72.9 °F 68.0 °F 85% 29.77 in 10.0 mi SE 8.1 mph - N/A   Overcast
10:33 AM 73.0 °F 68.2 °F 85% 29.77 in 10.0 mi SE 10.4 mph - N/A   Overcast
10:52 AM 72.7 °F 68.4 °F 86% 29.78 in 10.0 mi SE 6.9 mph - N/A   Overcast
11:12 AM 73.4 °F 68.5 °F 85% 29.78 in 10.0 mi SE 8.1 mph - N/A   Overcast
11:32 AM 73.4 °F 68.7 °F 85% 29.79 in 10.0 mi ESE 6.9 mph - N/A   Overcast
11:52 AM 73.4 °F 68.9 °F 86% 29.79 in 10.0 mi ESE 4.6 mph - N/A   Overcast
12:12 PM 72.9 °F 68.7 °F 87% 29.79 in 10.0 mi East 4.6 mph - N/A   Overcast
12:32 PM 73.4 °F 68.9 °F 86% 29.78 in 10.0 mi East 5.8 mph - N/A   Overcast
12:52 PM 73.6 °F 69.3 °F 86% 29.79 in 10.0 mi ENE 5.8 mph - N/A   Overcast
1:13 PM 73.6 °F 69.3 °F 86% 29.79 in 10.0 mi ENE 6.9 mph - N/A   Overcast
1:32 PM 73.4 °F 69.4 °F 87% 29.79 in 10.0 mi NE 8.1 mph - N/A   Overcast
1:52 PM 71.4 °F 69.3 °F 93% 29.79 in 3.0 mi ENE 9.2 mph - N/A   Overcast
2:13 PM 70.7 °F 69.4 °F 96% 29.80 in 2.5 mi ENE 9.2 mph - N/A   Overcast
2:32 PM 70.9 °F 69.8 °F 96% 29.80 in 1.8 mi ENE 8.1 mph - N/A   Overcast
2:52 PM 71.2 °F 69.4 °F 94% 29.80 in 5.0 mi East 9.2 mph - N/A   Overcast
3:13 PM 70.9 °F 69.1 °F 94% 29.81 in 5.0 mi ENE 8.1 mph - N/A   Overcast
3:32 PM 70.7 °F 68.5 °F 93% 29.82 in 7.0 mi ENE 9.2 mph - N/A   Overcast
3:52 PM 70.7 °F 68.2 °F 92% 29.82 in 10.0 mi ENE 8.1 mph - N/A   Overcast
4:13 PM 70.9 °F 68.5 °F 92% 29.83 in 10.0 mi ENE 8.1 mph - N/A   Overcast
4:32 PM 71.6 °F 68.7 °F 91% 29.83 in 10.0 mi ENE 5.8 mph - N/A   Overcast
4:52 PM 72.0 °F 68.9 °F 90% 29.83 in 10.0 mi ENE 5.8 mph - N/A   Overcast
5:13 PM 72.9 °F 69.4 °F 89% 29.84 in 10.0 mi NE 3.5 mph - N/A   Overcast
5:32 PM 72.5 °F 69.1 °F 89% 29.84 in 10.0 mi NE 3.5 mph - N/A   Overcast
5:52 PM 72.9 °F 69.4 °F 89% 29.84 in 10.0 mi NE 4.6 mph - N/A   Overcast
6:12 PM 72.9 °F 69.6 °F 90% 29.84 in 10.0 mi Calm Calm - N/A   Overcast
6:32 PM 73.0 °F 69.6 °F 89% 29.84 in 10.0 mi NE 3.5 mph - N/A   Overcast
6:53 PM 73.4 °F 69.8 °F 88% 29.84 in 10.0 mi ENE 3.5 mph - N/A   Overcast
7:12 PM 73.0 °F 69.8 °F 90% 29.85 in 10.0 mi ENE 3.5 mph - N/A   Overcast
7:32 PM 72.9 °F 69.8 °F 90% 29.85 in 10.0 mi East 3.5 mph - N/A   Overcast
7:53 PM 72.7 °F 70.0 °F 91% 29.86 in 10.0 mi Calm Calm - N/A   Overcast
8:12 PM 72.3 °F 70.0 °F 92% 29.86 in 10.0 mi Calm Calm - N/A   Overcast
8:53 PM 71.6 °F 69.8 °F 94% 29.87 in 10.0 mi Calm Calm - N/A   Overcast
9:12 PM 71.2 °F 69.8 °F 95% 29.87 in 10.0 mi Calm Calm - N/A   Overcast
9:32 PM 70.3 °F 69.4 °F 97% 29.88 in 7.0 mi NE 3.5 mph - N/A   Overcast
10:12 PM 70.7 °F 69.6 °F 96% 29.89 in 10.0 mi North 3.5 mph - N/A   Overcast
10:32 PM 70.7 °F 69.3 °F 95% 29.89 in 10.0 mi North 4.6 mph - N/A   Overcast
10:53 PM 70.3 °F 69.3 °F 96% 29.89 in 7.0 mi North 3.5 mph - N/A   Overcast
11:12 PM 70.3 °F 69.4 °F 97% 29.89 in 10.0 mi Calm Calm - N/A   Overcast
11:32 PM 70.2 °F 69.3 °F 97% 29.90 in 7.0 mi Calm Calm - N/A   Mostly Cloudy
11:53 PM 69.4 °F 68.7 °F 98% 29.90 in 7.0 mi Calm Calm - N/A   Scattered Clouds